Regional Weather Roundup
Issued by NWS

Home | Current Version | Previous Version | Text Only | Print | Product List | Glossary Off
Versions: 1 2 3 4 5 6 7 8 9 10 11 12 13 14 15 16 17 18 19 20 21 22 23 24 25 26 27

000
ASUS45 KCYS 221810
RWRWY

WYOMING REGIONAL WEATHER ROUNDUP
NATIONAL WEATHER SERVICE CHEYENNE WY
1200 PM MDT FRI SEP 22 2017

NOTE:  "FAIR" INDICATES FEW OR NO CLOUDS BELOW 12,000 FEET
WITH NO SIGNIFICANT WEATHER AND/OR OBSTRUCTIONS TO VISIBILITY.

WYZ001-221900-
YELLOWSTONE NATIONAL PARK

CITY           SKY/WX    TMP DP  RH WIND       PRES   REMARKS
LK YELLOWSTONE NOT AVBL
W YELLOWSTONE  NOT AVBL

$$
WYZ002>013-054>058-071-098>099-221900-
NORTHERN WYOMING

CITY           SKY/WX    TMP DP  RH WIND       PRES   REMARKS
JACKSON        FAIR      44  34  67 SW10      29.89R
CODY           CLOUDY    37  35  92 N12       29.97F WCI  29
GREYBULL       CLOUDY    42  40  92 CALM      29.96F
6HR MIN TEMP:  38; 6HR MAX TEMP:  43; 6HR PCP:  0.11;

WORLAND        CLOUDY    42  38  85 N6        29.96S
6HR MIN TEMP:  39; 6HR MAX TEMP:  42; 6HR PCP:  0.04;

SHERIDAN       CLOUDY    44  41  89 N5        29.97F
6HR MIN TEMP:  42; 6HR MAX TEMP:  44; 6HR PCP:  0.03;

BUFFALO        CLOUDY    44  36  73 N8        29.96F
6HR MIN TEMP:  40; 6HR MAX TEMP:  44; 6HR PCP:  0.01;

GILLETTE       CLOUDY    47  38  71 N9        29.94F
6HR MIN TEMP:  42; 6HR MAX TEMP:  47;

HULETT         CLOUDY    50  36  57 N8        29.94S
NEWCASTLE      FAIR      59  37  44 NW17G26   29.87R

$$
WYZ014>020-022>026-101>103-221900-
CENTRAL WYOMING

CITY           SKY/WX    TMP DP  RH WIND       PRES   REMARKS
BIG PINEY      CLOUDY    48  33  56 S12       29.90R
6HR MIN TEMP:  40; 6HR MAX TEMP:  49; 6HR PCP: TRACE;

PINEDALE       CLOUDY    46  36  66 SE8       29.91F
DUBOIS         CLOUDY    34  32  93 SE13      29.92S WCI  25
LANDER           N/A    N/A N/A N/A MISG      29.93F
RIVERTON       CLOUDY    41  38  89 E3        29.95R
6HR MIN TEMP:  37; 6HR MAX TEMP:  41; 6HR PCP:  0.23;

CASPER         CLOUDY    48  33  56 VRB3      29.96S
6HR MIN TEMP:  35; 6HR MAX TEMP:  49;

DOUGLAS        FAIR      55  34  45 NW18G30   29.92F
6HR MIN TEMP:  34; 6HR MAX TEMP:  56;


$$
WYZ021-027>030-104>119-221900-
SOUTHERN WYOMING

CITY           SKY/WX    TMP DP  RH WIND       PRES   REMARKS
EVANSTON       PTSUNNY   43  36  76 SW12G20   29.89S
6HR MIN TEMP:  33; 6HR MAX TEMP:  44;

KEMMERER         N/A     43  34  70 CALM      29.90F
FORT BRIDGER   MOCLDY    47  36  64 W5        29.92S
ROCK SPRINGS   PTSUNNY   48  40  73 E9        29.90S
6HR MIN TEMP:  37; 6HR MAX TEMP:  48; 6HR PCP:  0.06;

DIXON          FAIR      58  36  42 NW14      29.94F
RAWLINS        FAIR      52  36  54 SW13G18   29.94F
6HR MIN TEMP:  38; 6HR MAX TEMP:  52;

SARATOGA       FAIR      54  34  47 N10G17    29.95F
LARAMIE        CLOUDY    55  32  41 N18G25    29.92S
6HR MIN TEMP:  38; 6HR MAX TEMP:  67;

CHEYENNE       FAIR      63  38  39 NE6       29.88F
6HR MIN TEMP:  41; 6HR MAX TEMP:  65;

TORRINGTON     FAIR      62  37  39 N13       29.85R
6HR MIN TEMP:  40; 6HR MAX TEMP:  64;

PINE BLUFFS    FAIR      63  39  42 NE8       29.87R

$$




USA.gov is the U.S. government's official web portal to all federal, state and local government web resources and services.